Powrót do katalogu

CHIMERA-1

LostNaukaHEO
NORAD 63100·PAYLOAD·🇺🇸 United States

Wystrzelony Feb 27, 2025 z Cape Canaveral Space Force Station

Loading…

Następne Przeloty (najbliższe 24 godziny)

TLE

NieaktualneSource: Space-Track

Epoka: Feb 27, 2025, 00:53 UTC

1 63100U 25038B   25058.03746186 -.00007054  00000-0  00000+0 0  9999
2 63100  28.5200 357.2438 9653600 216.4100   0.0142  0.10463308    06

Śledź CHIMERA-1 w czasie rzeczywistym z AllMySat

Download on the App Store